"Pseudo-MPEC" for W05058

Created 2023 Dec 2 1:22:08 UT using Find_Orb

Click here for an explanation of pseudo-MPECs

 
 Astrometry: 
     W05058 * C2023 11 17!:=e6E2^_w,n-Xcq)]+y60E\P#%@Yt7D06Vfto=ZcKlKd0bIcx3/O18
     W05058   C2023 11 17[K8wEqq\;(sLHGAfAstrometry(_7teb8O$;9O7GMPDrG.=x'iF)O18
     W05058   C2023 11 17d21II_5exim1Fv37redacted;C:gh2i*u`\)(+m;p=V,^.$'U6'RO18
     W05058   C2023 11 17#?u`=*O!%i]\r@g@[87SHC70!se7q;?m3Zd=cfCS#%%CFEX^\2`YO18
     W05058   C2023 11 17#p[P6LQclick-AJTT^?rH_;!t`@LrY.^?Bj#lOw3qhK`aC.8/26-O18
     W05058   C2023 11 17uf$Y_FO)IB/S?wJA?O\MjeTvRDherey_`N%ae7Hh31AR.ENMud-TO18
     W05058   C2023 11 19gg.dsR=XlE71`VPQ$d5:qforD9yKhc3j=T2r+Xid%h!6O1f5^EKRO18
     W05058   C2023 11 19Il;N4$;%uJ7!BB4f`mT))MIdca/h:Kk`@stxiys9jO[3=!M0Vi99O18
     W05058   C2023 11 19=#Z#2=7GWW@RU/Q)v28/O96_oR/wHf1KSgCexplanationj4.,1rO18

Station data:
(O18) WFST, Lenghu  (N38.607601 E93.895220).

Orbital elements:  W05058
   Perihelion 2024 May 18.30294 +/- 158 TT =  7:16:13 (JD 2460448.80294)
Epoch 2023 Nov 19.0 TT = JDT 2460267.5   Earth MOID: 0.3266   Me: 0.0395
M 204.60106981 +/- 70               (J2000 ecliptic)             AutoNEOCP
n   0.85712306 +/- 0.331            Peri.  354.40518 +/- 35
a   1.09759114 +/- 0.283            Node   241.55491 +/- 3.7
e   0.6170739 +/- 0.238             Incl.   24.11276 +/- 37
P   1.15/420.00d           H 20.23  G  0.15   U 12.0  SR
q 0.42029622 +/- 0.471    Q 1.77488606 +/- 1.98
From 9 observations 2023 Nov. 17-19; mean residual 0".23
Residuals in arcseconds: 
231117 O18  .17-  .09-    231117 O18  .06-  .05-    231119 O18  .49+  .08+    
231117 O18  .06+  .50-    231117 O18  .03+  .24+    231119 O18  .01+  .03+    
231117 O18  .04+  .09+    231117 O18  .10+  .31+    231119 O18  .50-  .12-    

Ephemerides (geocentric):
Date (UTC) HH   RA             Dec           delta  r     elong  mag " sig PA
---- --------  ------------   ------------  ------ ------ -----  --- --------
2023 12 02 01  04 06 59.181   +15 42 29.04  .74240 1.7241 171.8 21.2 5824 120
2023 12 02 02  04 06 51.830   +15 41 29.43  .74238 1.7240 171.7 21.2 5867 120
2023 12 02 03  04 06 44.479   +15 40 29.82  .74235 1.7239 171.6 21.2 5910 120
2023 12 02 04  04 06 37.130   +15 39 30.19  .74232 1.7238 171.6 21.2 5954 120
2023 12 02 05  04 06 29.782   +15 38 30.56  .74230 1.7236 171.5 21.2 5997 120
2023 12 02 06  04 06 22.436   +15 37 30.93  .74228 1.7235 171.4 21.2 6041 120
2023 12 02 07  04 06 15.092   +15 36 31.29  .74225 1.7234 171.4 21.2 6085 120
2023 12 02 08  04 06 07.749   +15 35 31.64  .74223 1.7233 171.3 21.2 6129 120
2023 12 02 09  04 06 00.407   +15 34 31.99  .74221 1.7232 171.2 21.2 6174 120
2023 12 02 10  04 05 53.067   +15 33 32.33  .74218 1.7231 171.2 21.2 6218 120
2023 12 02 11  04 05 45.729   +15 32 32.66  .74216 1.7230 171.1 21.2 6263 120
2023 12 02 12  04 05 38.392   +15 31 32.99  .74214 1.7229 171.0 21.2 6308 120
2023 12 02 13  04 05 31.057   +15 30 33.32  .74212 1.7228 171.0 21.2 6354 120
2023 12 02 14  04 05 23.723   +15 29 33.64  .74210 1.7227 170.9 21.2 6399 120
2023 12 02 15  04 05 16.391   +15 28 33.96  .74208 1.7226 170.8 21.2 6445 120
2023 12 02 16  04 05 09.061   +15 27 34.27  .74207 1.7225 170.8 21.2 6491 120
2023 12 02 17  04 05 01.733   +15 26 34.57  .74205 1.7224 170.7 21.2 6537 120
2023 12 02 18  04 04 54.406   +15 25 34.87  .74203 1.7223 170.6 21.2 6583 120
2023 12 02 19  04 04 47.081   +15 24 35.17  .74202 1.7222 170.6 21.2 6629 120
2023 12 02 20  04 04 39.757   +15 23 35.47  .74200 1.7221 170.5 21.2 6676 120
2023 12 02 21  04 04 32.436   +15 22 35.76  .74199 1.7220 170.4 21.2 6723 120
2023 12 02 22  04 04 25.116   +15 21 36.04  .74197 1.7219 170.4 21.2 6770 120
2023 12 02 23  04 04 17.798   +15 20 36.32  .74196 1.7218 170.3 21.2 6817 120
2023 12 03 00  04 04 10.482   +15 19 36.60  .74194 1.7217 170.2 21.2 6865 120
2023 12 03 01  04 04 03.168   +15 18 36.88  .74193 1.7216 170.2 21.2 6912 120
2023 12 03 02  04 03 55.856   +15 17 37.15  .74192 1.7215 170.1 21.2 6960 120
2023 12 03 03  04 03 48.545   +15 16 37.43  .74191 1.7214 170.0 21.2 7008 120
2023 12 03 04  04 03 41.237   +15 15 37.69  .74190 1.7213 170.0 21.2 7057 120
2023 12 03 05  04 03 33.930   +15 14 37.96  .74189 1.7212 169.9 21.2 7105 120
2023 12 03 06  04 03 26.626   +15 13 38.22  .74188 1.7211 169.8 21.2 7154 120
2023 12 03 07  04 03 19.323   +15 12 38.48  .74187 1.7209 169.8 21.2 7203 120
2023 12 03 08  04 03 12.023   +15 11 38.74  .74186 1.7208 169.7 21.2 7252 120
2023 12 03 09  04 03 04.724   +15 10 39.00  .74185 1.7207 169.6 21.2 7301 120
2023 12 03 10  04 02 57.428   +15 09 39.26  .74184 1.7206 169.6 21.2 7351 120
2023 12 03 11  04 02 50.133   +15 08 39.51  .74184 1.7205 169.5 21.2 7401 120
2023 12 03 12  04 02 42.841   +15 07 39.77  .74183 1.7204 169.4 21.2 7450 120
2023 12 03 13  04 02 35.551   +15 06 40.02  .74183 1.7203 169.4 21.2 7501 120
2023 12 03 14  04 02 28.262   +15 05 40.27  .74182 1.7202 169.3 21.2 7551 120
2023 12 03 15  04 02 20.976   +15 04 40.52  .74182 1.7201 169.2 21.2 7602 120
2023 12 03 16  04 02 13.693   +15 03 40.77  .74181 1.7200 169.1 21.2 7652 120
2023 12 03 17  04 02 06.411   +15 02 41.02  .74181 1.7199 169.1 21.2 7703 120
2023 12 03 18  04 01 59.131   +15 01 41.27  .74181 1.7198 169.0 21.2 7755 120
2023 12 03 19  04 01 51.854   +15 00 41.52  .74181 1.7197 168.9 21.2 7806 120
2023 12 03 20  04 01 44.579   +14 59 41.77  .74180 1.7196 168.9 21.2 7858 120
2023 12 03 21  04 01 37.307   +14 58 42.02  .74180 1.7195 168.8 21.2 7910 120
2023 12 03 22  04 01 30.036   +14 57 42.28  .74180 1.7194 168.7 21.3 7962 120
2023 12 03 23  04 01 22.768   +14 56 42.53  .74180 1.7192 168.7 21.3 8014 120
2023 12 04 00  04 01 15.502   +14 55 42.78  .74181 1.7191 168.6 21.3 8066 120